Regional Weather Roundup
Issued by NWS

Home | Current Version | Previous Version | Graphics & Text | Print | Product List | Glossary On
Versions: 1 2 3 4 5 6 7 8 9 10 11 12 13 14 15 16 17 18 19 20 21 22 23 24 25 26 27 28 29 30 31 32 33 34 35 36 37 38 39 40 41 42 43 44 45 46 47 48 49 50
000
ASUS43 KLSX 221807
RWRMO

WEATHER SUMMARY FOR MISSOURI
NATIONAL WEATHER SERVICE SPRINGFIELD MO
100 PM CDT MON SEP 22 2014

NOTE: "FAIR" INDICATES FEW OR NO CLOUDS BELOW 12,000 FEET WITH NO
       SIGNIFICANT WEATHER AND/OR OBSTRUCTIONS TO VISIBILITY.
       CURRENT SKY AND/OR WEATHER CONDITIONS ARE NOT AVAILABLE FOR
       CHILLICOTHE AND FARMINGTON.

MOZ001>031-035>038-043-044-053-054-221900-
...NORTHERN AND WESTERN MISSOURI...

CITY           SKY/WX    TMP DP  RH WIND       PRES   REMARKS
KANSAS CTY INT MOSUNNY   71  51  49 NE5       30.30F
6HR MIN TEMP:  48; 6HR MAX TEMP:  71;

KANSAS C DTWN  SUNNY     71  50  47 VRB3      30.29F
6HR MIN TEMP:  51; 6HR MAX TEMP:  71;

LEE`S SUMMIT   SUNNY     69  50  50 E6        30.31F
6HR MIN TEMP:  48; 6HR MAX TEMP:  70;

ST JOSEPH      SUNNY     71  50  47 VRB3      30.30F
6HR MIN TEMP:  41; 6HR MAX TEMP:  71;

CHILLICOTHE      N/A     70  51  51 E3        30.31F
6HR MIN TEMP:  47; 6HR MAX TEMP:  71;

KIRKSVILLE     SUNNY     69  47  45 VRB3      30.32F
6HR MIN TEMP:  44; 6HR MAX TEMP:  69;


$$
MOZ066>068-077>081-088>096-101>105-221900-
...SOUTHWEST MISSOURI...

CITY           SKY/WX    TMP DP  RH WIND       PRES   REMARKS
SPRINGFIELD    SUNNY     70  50  49 E5        30.29F
6HR MIN TEMP:  48; 6HR MAX TEMP:  70;

JOPLIN         SUNNY     70  52  52 SE6       30.30F
6HR MIN TEMP:  48; 6HR MAX TEMP:  70;


$$
MOZ032>034-039>042-045>050-055>058-069>072-221900-
...CENTRAL MISSOURI...

CITY           SKY/WX    TMP DP  RH WIND       PRES   REMARKS
COLUMBIA       SUNNY     70  50  49 NE12      30.30F
6HR MIN TEMP:  48; 6HR MAX TEMP:  70;

JEFFERSON CITY SUNNY     71  45  39 VRB3      30.29F
6HR MIN TEMP:  49; 6HR MAX TEMP:  71;

ROLLA          SUNNY     68  47  46 VRB3      30.29F
6HR MIN TEMP:  47; 6HR MAX TEMP:  68;

SEDALIA        SUNNY     71  49  45 VRB6      30.30F
6HR MIN TEMP:  49; 6HR MAX TEMP:  72;

WHITEMAN AFB   MOSUNNY   70  52  51 NE7       30.29F
OSAGE BEACH    SUNNY     70  50  49 NE8       30.30S

$$
MOZ051-052-059>065-221900-
...EAST CENTRAL MISSOURI...

CITY           SKY/WX    TMP DP  RH WIND       PRES   REMARKS
ST LOUIS INTL  SUNNY     70  48  45 CALM      30.30F
6HR MIN TEMP:  53; 6HR MAX TEMP:  72;

SPIRIT OF STL  SUNNY     69  49  48 N5        30.29F
6HR MIN TEMP:  47; 6HR MAX TEMP:  69;

ST CHARLES     SUNNY     70  49  47 N7        30.29F
6HR MIN TEMP:  52; 6HR MAX TEMP:  70;


$$
MOZ072>076-082>087-097>100-106>115-221900-
...SOUTH CENTRAL AND SOUTHEAST MISSOURI...

CITY           SKY/WX    TMP DP  RH WIND       PRES   REMARKS
CAPE GIRARDEAU SUNNY     71  48  43 N9        30.26F
6HR MIN TEMP:  48; 6HR MAX TEMP:  71;

FARMINGTON     SUNNY     70  48  46 NW8       30.31F
6HR MIN TEMP:  48; 6HR MAX TEMP:  70;

POPLAR BLUFF   SUNNY     72  49  44 VRB5      30.26S
6HR MIN TEMP:  52; 6HR MAX TEMP:  72;

WEST PLAINS    SUNNY     71  50  47 N9        30.30F
6HR MIN TEMP:  49; 6HR MAX TEMP:  71;


$$



USA.gov is the U.S. government's official web portal to all federal, state and local government web resources and services.